sat.trackr.live / text

‹ back to catalog

STARLINK-34825

NORAD 65692 · 2025-212S

PAYLOAD ACTIVE UNKNOWN

§ Identity

Operator
Country
US
Launch date
2025-09-21
Launch site
AFETR
Launch vehicle
Mass (kg)
RCS (m²)

Purposes: comms

External: N2YO · Heavens-Above · Gunter

§ Orbital elements

Epoch: 2026-09-20T23:06:21.364992Z

Period
93.85 min
Inclination
53.1587°
Eccentricity
0.0001587
Mean motion
15.34397980 rev/d
Perigee alt
461.6 km
Apogee alt
463.8 km
Semi-major
6,840.8 km
B*
2.0755e-4
RAAN
155.6079°
Arg perigee
87.2997°
Mean anomaly
272.8187°
Rev number
5,717

§ Raw data

STARLINK-348251 65692U 25212S   26263.96274728  .00006642  00000+0  20755-3 0  99932 65692  53.1587 155.6079 0001587  87.2997 272.8187 15.34397980 57179

JSON: /api/v1/satellites/65692 · /tle

For live sub-satellite position, see the globe view (requires WebGL).

§ Visibility from observer

Set your observer location to see the next 7 days of passes ≥ 10°. The values pass through the URL so the page stays shareable.

No JS? Fill the form by hand. The geolocation button needs JavaScript.